Hourly Data Report for December 30, 2018

TORONTO CITY
ONTARIO
Current Station Operator: ECCC - MSC

43°40'00.000" N
79°24'00.000" W
112.50 m
6158355
71508
XTO

Download Data

Hourly Data (December 2018)
Hourly Data Report for December 30, 2018
TIME
LST
Temp Definition
°C
Dew Point Definition
°C
Rel Hum Definition
%
Precip. Amount Definition
mm

Wind Dir Definition
10's deg

Wind Spd Definition
km/h
Visibility Definition
km
Stn Press Definition
kPa
Hmdx Definition


Wind Chill Definition


Weather Definition


00:00 -4.9 -9.4 70 0.0 LegendMM LegendMM   100.88     LegendNANA
01:00 -4.5 -8.8 72 0.0 LegendMM LegendMM   100.81     LegendNANA
02:00 -4.9 -6.9 86 0.6 LegendMM LegendMM   100.78     LegendNANA
03:00 -4.4 -6.5 85 0.3 LegendMM LegendMM   100.73     LegendNANA
04:00 -4.2 -6.1 86 0.0 LegendMM LegendMM   100.70     LegendNANA
05:00 -3.6 -5.3 88 0.2 LegendMM LegendMM   100.61     LegendNANA
06:00 -3.0 -4.7 88 0.0 LegendMM LegendMM   100.59     LegendNANA
07:00 -2.0 -4.4 83 0.0 LegendMM LegendMM   100.60     LegendNANA
08:00 -1.3 -3.9 83 0.0 LegendMM LegendMM   100.60     LegendNANA
09:00 -0.9 -2.9 86 0.0 LegendMM LegendMM   100.61     LegendNANA
10:00 -0.5 -2.6 86 0.0 LegendMM LegendMM   100.58     LegendNANA
11:00 -0.4 -2.9 83 0.2 LegendMM LegendMM   100.54     LegendNANA
12:00 0.3 -3.4 76 0.0 LegendMM LegendMM   100.42     LegendNANA
13:00 1.2 -4.4 66 0.0 LegendMM LegendMM   100.38     LegendNANA
14:00 1.2 -4.2 67 0.0 LegendMM LegendMM   100.38     LegendNANA
15:00 1.2 -3.9 69 0.0 LegendMM LegendMM   100.44     LegendNANA
16:00 1.2 -4.4 66 0.0 LegendMM LegendMM   100.49     LegendNANA
17:00 0.7 -5.3 64 0.0 LegendMM LegendMM   100.53     LegendNANA
18:00 0.5 -5.3 65 0.0 LegendMM LegendMM   100.56     LegendNANA
19:00 0.4 -5.0 67 0.0 LegendMM LegendMM   100.59     LegendNANA
20:00 0.3 -4.6 70 0.0 LegendMM LegendMM   100.58     LegendNANA
21:00 0.2 -4.5 70 0.0 LegendMM LegendMM   100.59     LegendNANA
22:00 0.1 -4.3 72 0.0 LegendMM LegendMM   100.62     LegendNANA
23:00 0.2 -4.4 71 0.0 LegendMM LegendMM   100.64     LegendNANA

Notes on Data Quality.

Legend

  • E = Estimated
  • M = Missing
  • NA = Not Available*
  • [empty] = Indicates an unobserved value
Date modified: